This is the latest recevied weather packets stored in our database for station/object WA6ODQ-13. If no packets are shown the sender has not sent any weather packets the latest 10 day(s).
| Time | Temp. | Humidity | Pressure | Rain* | Wind** | Luminosity | Snow |
|---|---|---|---|---|---|---|---|
| 1788559745 | 26.67° C | 45% | 1011.6 hPa | 0 mm | - | 570 W/m² | - |
| 1788559444 | 26.67° C | 44% | 1011.5 hPa | 0 mm | - | 585 W/m² | - |
| 1788559140 | 26.11° C | 46% | 1011.4 hPa | 0 mm | - | 344 W/m² | - |
| 1788558834 | 26.67° C | 44% | 1011.4 hPa | 0 mm | - | 585 W/m² | - |
| 1788558530 | 25.56° C | 47% | 1011.5 hPa | 0 mm | - | 586 W/m² | - |
| 1788558226 | 25.56° C | 48% | 1011.4 hPa | 0 mm | - | 592 W/m² | - |
| 1788557924 | 25° C | 49% | 1011.6 hPa | 0 mm | - | 600 W/m² | - |
| 1788557619 | 26.11° C | 48% | 1011.5 hPa | 0 mm | - | 621 W/m² | - |
| 1788557315 | 25.56° C | 48% | 1011.6 hPa | 0 mm | - | 661 W/m² | - |
| 1788557010 | 25.56° C | 48% | 1011.5 hPa | 0 mm | - | 161 W/m² | - |
| 1788556705 | 25.56° C | 48% | 1011.5 hPa | 0 mm | - | 639 W/m² | - |
| 1788556399 | 26.11° C | 48% | 1011.5 hPa | 0 mm | - | 637 W/m² | - |
| 1788556089 | 25.56° C | 48% | 1011.7 hPa | 0 mm | - | 644 W/m² | - |
| 1788555789 | 24.44° C | 48% | 1011.4 hPa | 0 mm | - | 690 W/m² | - |
| 1788555485 | 24.44° C | 48% | 1011.6 hPa | 0 mm | - | 705 W/m² | - |
| 1788555181 | 24.44° C | 49% | 1011.8 hPa | 0 mm | - | 717 W/m² | - |
| 1788554877 | 25.56° C | 46% | 1011.7 hPa | 0 mm | - | 547 W/m² | - |
| 1788554572 | 24.44° C | 49% | 1011.7 hPa | 0 mm | - | 421 W/m² | - |
| 1788554263 | 23.89° C | 51% | 1011.7 hPa | 0 mm | - | 311 W/m² | - |
| 1788553959 | 23.33° C | 51% | 1011.7 hPa | 0 mm | - | 306 W/m² | - |
| 1788553655 | 22.78° C | 53% | 1011.7 hPa | 0 mm | - | 207 W/m² | - |
| 1788553351 | 23.89° C | 52% | 1011.6 hPa | 0 mm | - | 177 W/m² | - |
| 1788553063 | 23.89° C | 52% | 1011.7 hPa | 0 mm | - | 198 W/m² | - |
| 1788552740 | 23.33° C | 52% | 1011.8 hPa | 0 mm | - | 436 W/m² | - |
| 1788552435 | 22.78° C | 54% | 1011.7 hPa | 0 mm | - | 167 W/m² | - |
* Rain latest hour (hover to see other rain measurements)
** Current wind speed in m/s (hover to see current wind gust speed)